Home > Weather > Leiden > Past weeks

Flag for Netherlands Weather for the Past 2 Weeks in Leiden, Netherlands

Now
37 °F

Sprinkles. Partly cloudy.


Feels Like: 29 °F
Forecast: 41 / 45 °F
Wind: 14 mph from Southwest

Location: Rotterdam Zestienhoven Airport

Current Time: Feb 10, 2016 at 3:57:19 AM

Latest Report: Feb 10, 2016 at 2:55 AM


Visibility: 3 mi

Pressure: 29.18 "Hg

Humidity: 93%

Dew point: 36 °F

Location of LeidenLocation

Historic Weather in Leiden — Graph

°F

Leiden Temperature Yesterday

Maximum temperature yesterday: 46 °F (at 12:25 AM)
Minimum temperature yesterday: 39 °F (at 1:55 PM)
Average temperature yesterday: 42 °F

High & Low Weather Summary for the Past Weeks

 TemperatureHumidityPressure
High54 °F (Jan 27, 2:25 PM)100% (Jan 31, 3:25 PM)30.27 "Hg (Jan 31, 3:25 PM)
Low36 °F (Feb 3, 11:55 PM)57% (Jan 30, 9:55 PM)28.94 "Hg (Feb 9, 3:25 PM)
Average47 °F81%29.81 "Hg
* Reported Jan 26 2:25 AM — Feb 10 2:25 AM, Leiden, Weather by CustomWeather, © 2016

Note: Actual official high and low records may vary slightly from our data, if they occured in-between our weather recording intervals... More about our weather records

Advertising

Leiden Weather History for the Previous 24 Hours

 ConditionsComfort  
Time TempWeatherWind HumidityBarometerVisibility
2:25 AM
Wed, Feb 10
39 °FSprinkles. Partly cloudy.15 mph87%29.18 "HgN/A
1:55 AM39 °FPassing clouds.15 mph81%29.18 "HgN/A
1:25 AM39 °FPassing clouds.12 mph81%29.15 "HgN/A
12:55 AM41 °FPartly cloudy.9 mph76%29.15 "HgN/A
12:25 AM41 °FPassing clouds.12 mph76%29.15 "HgN/A
11:55 PM
Tue, Feb 9
39 °FPassing clouds.12 mph75%29.15 "HgN/A
11:25 PM41 °FPassing clouds.10 mph70%29.15 "HgN/A
10:25 PM41 °FClear.12 mph70%29.12 "HgN/A
9:55 PM41 °FPassing clouds.13 mph70%29.12 "HgN/A
9:25 PM41 °FClear.13 mph70%29.09 "HgN/A
8:55 PM41 °FPassing clouds.14 mph76%29.09 "HgN/A
8:25 PM41 °FPassing clouds.10 mph76%29.09 "HgN/A
7:55 PM41 °FPassing clouds.13 mph76%29.06 "HgN/A
7:25 PM41 °FPartly cloudy.14 mph81%29.06 "HgN/A
6:55 PM41 °FPassing clouds.13 mph87%29.03 "HgN/A
6:25 PM41 °FClear.10 mph87%29.03 "HgN/A
5:55 PM41 °FPartly cloudy.10 mph93%29.00 "HgN/A
5:25 PM41 °FDrizzle. Broken clouds.12 mph93%29.00 "HgN/A
4:55 PM39 °FPassing clouds.8 mph93%28.97 "HgN/A
4:25 PM39 °FLight rain. Broken clouds.8 mph93%28.97 "HgN/A
3:55 PM39 °FSprinkles. Partly sunny.8 mph93%28.97 "HgN/A
3:25 PM39 °FRain showers. Mostly cloudy.8 mph87%28.94 "Hg4 mi
2:55 PM39 °FLight rain. Broken clouds.7 mph87%28.97 "HgN/A
1:55 PM39 °FRain. Cloudy.8 mph93%28.97 "Hg5 mi
1:25 PM41 °FLight rain. Partly sunny.9 mph87%29.00 "HgN/A
12:55 PM41 °FSprinkles. Cloudy.5 mph87%29.03 "HgN/A
12:25 PM43 °FLight rain. Overcast.6 mph81%29.06 "HgN/A
11:25 AM43 °FPassing clouds.10 mph87%29.12 "HgN/A
10:55 AM45 °FScattered clouds.13 mph81%29.15 "HgN/A
10:25 AM45 °FBroken clouds.14 mph81%29.18 "HgN/A
9:55 AM43 °FPassing clouds.13 mph87%29.21 "HgN/A
8:55 AM43 °FPartly sunny.13 mph87%29.24 "HgN/A
8:25 AM43 °FMostly cloudy.17 mph87%29.27 "HgN/A
7:55 AM43 °FPartly cloudy.18 mph87%29.27 "HgN/A
7:25 AM43 °FPartly cloudy.18 mph87%29.27 "HgN/A
6:55 AM43 °FPartly cloudy.21 mph81%29.30 "HgN/A
6:25 AM43 °FPassing clouds.22 mph81%29.30 "HgN/A
5:55 AM43 °FPartly cloudy.21 mph87%29.30 "HgN/A
5:25 AM43 °FPassing clouds.25 mph87%29.33 "HgN/A
4:55 AM45 °FMostly cloudy.22 mph81%29.33 "HgN/A
4:25 AM45 °FPassing clouds.23 mph76%29.33 "HgN/A
3:55 AM46 °FPassing clouds.22 mph66%29.33 "HgN/A
3:25 AM45 °FClear.22 mph71%29.36 "HgN/A
Weather by CustomWeather, © 2016

See weather overviewHow to use our weather pages